Theta_e
343 340 342 343 345 344 344 344 343 340 336 334 334 333 332 331 332 333 328 324 326 326 324 325 325 326 329 332 334 334 334 335 335 336 337 337 337 338 338 340 337 334 333 334 335 336 336 337 337 338 338 339 340 339 338 337 336 336 335 332 331 331 331 332 335 334 333 335 337 338 336 335 334 331 330 331 331 331 331 330 328 328 329 331 330
342 340 341 343 344 344 344 345 344 342 337 334 333 333 333 332 333 335 332 326 326 328 327 327 327 327 327 328 329 330 330 331 333 334 336 339 340 340 340 340 339 336 335 336 336 336 336 336 337 337 338 338 338 338 338 337 336 335 333 327 324 326 328 330 333 333 333 334 335 337 336 335 335 333 331 329 329 329 328 328 329 329 330 331 331
340 340 342 343 344 344 345 345 344 343 338 333 334 333 333 334 335 336 335 330 326 327 329 328 328 328 327 327 327 326 327 327 330 333 337 340 341 341 341 340 340 337 336 336 335 335 335 336 336 336 335 336 337 337 336 337 336 334 330 323 323 324 325 327 330 332 334 334 335 336 335 336 335 333 332 329 328 328 328 328 329 330 329 329 329
339 340 342 343 344 345 345 346 345 344 338 334 333 333 333 335 337 336 336 334 330 328 329 329 329 329 328 328 327 327 326 326 328 333 338 340 341 341 341 340 339 338 337 335 334 334 335 335 334 334 333 334 336 336 335 335 334 333 329 326 328 326 326 329 330 331 332 334 334 334 334 335 335 332 330 330 330 329 330 330 330 330 328 328 327
339 340 342 344 345 345 345 346 346 345 340 334 333 334 334 335 337 337 336 336 334 333 332 331 329 329 328 328 328 328 327 327 329 334 338 341 341 341 341 340 340 339 338 337 336 334 334 335 333 334 333 333 334 334 334 334 333 331 330 330 330 328 330 331 329 329 329 330 331 333 335 335 335 333 331 330 330 330 332 332 331 330 329 329 328
340 341 344 346 345 346 346 347 346 345 341 335 333 333 333 335 337 337 336 336 336 335 334 333 331 330 329 329 329 327 327 327 330 335 339 339 340 340 341 340 340 340 340 339 338 336 334 335 334 333 333 334 334 334 333 333 333 332 331 332 331 330 330 331 328 328 328 327 329 332 334 334 334 334 334 332 331 330 331 332 331 330 330 330 330
342 343 345 345 344 345 347 347 347 346 342 336 333 333 334 336 337 337 337 336 335 335 334 333 332 332 331 331 330 329 329 329 331 335 338 339 339 340 341 341 340 340 340 341 340 337 336 334 333 334 334 334 335 333 333 333 333 332 333 333 332 332 332 331 329 328 326 326 328 330 331 332 333 333 334 334 333 330 329 330 330 329 329 330 329
343 345 345 344 345 345 347 347 346 345 343 338 333 333 334 335 337 337 337 336 335 335 334 333 333 333 332 332 332 331 330 331 331 332 334 336 339 339 340 340 340 340 340 340 340 338 338 334 331 334 335 335 335 334 334 334 334 334 334 334 333 334 333 332 330 329 327 325 326 328 331 333 334 334 334 333 332 331 330 330 329 329 329 329 330
345 345 343 343 345 345 346 346 346 345 343 340 335 333 333 335 337 337 337 336 336 335 334 333 333 333 332 331 329 327 326 326 326 326 327 332 337 339 339 339 340 339 340 339 339 338 337 333 330 331 331 333 334 333 333 333 334 334 334 335 335 335 333 332 331 330 327 325 326 328 330 331 334 335 334 334 332 331 330 329 330 329 328 329 329
346 344 341 342 343 344 344 345 345 344 344 341 336 334 333 334 337 337 336 336 335 335 334 333 333 333 332 330 326 324 323 323 323 324 325 329 334 336 337 337 338 338 338 337 338 338 336 333 331 329 328 330 331 330 331 331 332 333 333 334 334 335 333 332 332 329 327 326 327 329 329 329 333 335 334 333 331 330 329 329 329 328 327 328 328
345 344 339 340 342 341 342 343 344 344 343 342 338 335 334 334 337 337 335 335 335 335 333 331 332 332 332 329 325 324 324 324 324 326 326 327 330 334 335 335 335 335 336 337 338 337 335 333 330 329 327 328 330 329 329 329 329 330 331 330 330 332 333 334 333 330 326 326 327 329 330 331 333 334 334 333 331 330 330 330 330 329 329 329 328
343 343 338 340 341 338 340 342 343 344 343 342 340 337 335 335 336 336 335 335 334 334 333 331 332 332 330 327 325 326 327 328 326 326 326 327 329 331 333 334 334 334 335 337 337 336 334 332 328 327 327 327 328 328 327 327 327 328 327 328 330 332 334 334 333 330 327 327 327 329 331 332 333 333 333 332 332 330 330 330 330 329 329 329 327
343 341 339 339 339 338 339 341 341 342 343 341 341 338 336 335 336 337 336 334 333 334 332 331 332 331 328 325 326 329 329 328 327 326 326 326 329 330 331 332 333 334 335 335 335 335 332 329 327 326 325 325 326 327 325 326 326 326 328 331 332 333 334 333 332 330 328 327 327 329 331 332 332 333 333 332 331 330 330 330 330 329 329 329 326
340 338 337 336 336 338 337 338 339 339 341 341 341 339 337 335 336 337 335 334 334 334 332 331 331 329 325 325 329 330 328 328 328 327 326 325 327 329 330 331 332 333 334 334 334 333 329 326 326 324 323 324 324 325 324 325 326 326 329 332 333 333 334 333 331 330 329 328 328 329 330 331 332 332 332 331 331 330 330 330 329 329 329 329 327
336 333 334 331 333 336 336 337 337 337 339 340 341 339 337 335 336 337 336 335 334 334 332 332 330 326 324 327 330 330 329 329 328 327 327 326 327 328 329 331 332 332 332 332 332 329 325 323 325 324 323 323 323 324 324 325 326 325 329 332 333 333 333 331 331 330 330 329 329 329 330 331 331 332 332 331 331 330 330 329 330 329 329 328 328
332 329 329 328 331 335 336 336 335 337 337 339 340 339 338 336 336 336 336 336 335 334 332 332 329 324 326 329 331 330 330 329 329 328 327 327 327 328 328 329 329 330 329 329 329 325 322 321 323 325 324 325 324 324 324 325 326 326 328 331 333 333 332 331 331 331 330 328 327 327 328 329 330 332 332 331 331 330 330 330 329 328 328 328 327
330 328 327 330 332 334 334 335 336 337 337 338 338 338 339 337 336 336 337 336 335 334 334 332 327 324 328 330 330 331 331 330 329 328 327 327 327 328 327 328 328 328 327 327 326 323 320 320 322 325 326 326 326 324 324 325 326 327 328 331 333 333 332 332 332 332 330 328 326 325 325 326 328 329 330 331 330 330 330 330 329 328 328 328 327
330 327 327 331 332 332 332 334 336 336 336 337 337 337 337 337 337 337 337 336 335 335 334 330 325 325 328 329 330 331 332 331 331 329 328 327 327 327 328 328 328 328 328 327 326 323 321 321 323 325 325 327 327 325 324 324 327 327 329 331 333 333 332 333 332 331 330 328 328 326 325 324 324 324 327 328 328 330 330 329 329 329 329 328 328
330 328 328 330 329 331 332 333 335 335 335 335 336 336 335 337 338 338 337 336 335 334 333 330 326 327 328 329 331 332 333 333 332 332 329 327 327 327 328 328 327 328 328 328 328 326 323 323 325 325 325 327 327 327 325 324 327 327 329 331 332 333 333 332 332 331 330 329 329 328 326 326 324 322 324 325 327 328 329 329 328 329 329 328 327
333 332 331 328 326 328 329 331 333 335 335 336 337 335 334 338 338 339 338 336 335 335 334 331 329 328 329 330 331 334 335 335 335 333 332 329 327 327 328 328 327 327 328 329 329 329 326 324 325 325 324 325 326 328 327 324 326 327 330 331 331 333 333 332 331 331 330 329 329 328 327 327 325 325 323 324 326 325 327 329 328 328 328 328 327
336 335 331 326 326 327 327 328 331 333 334 335 336 334 336 338 338 340 337 334 335 335 334 331 330 329 329 331 333 335 337 338 337 335 334 332 330 328 328 328 327 326 327 327 329 330 328 326 326 325 324 325 326 328 328 326 325 327 330 331 332 332 331 332 331 331 329 328 328 328 328 326 328 329 327 326 326 324 326 328 328 328 328 329 327
337 337 331 325 327 327 326 327 328 332 332 333 334 335 336 335 337 339 336 335 335 335 332 331 330 330 330 332 334 337 339 338 336 337 335 333 332 330 329 328 326 326 326 326 327 329 329 327 326 326 325 325 326 327 328 326 325 328 330 331 333 332 330 331 330 330 328 327 328 328 328 327 329 332 330 329 328 326 325 327 328 328 329 329 328
337 338 335 328 327 327 327 326 328 332 332 334 336 335 334 333 336 335 333 335 334 334 332 331 331 331 331 332 334 337 339 336 335 338 336 333 333 332 331 329 326 325 326 326 326 328 328 327 327 327 327 326 327 327 327 326 326 329 330 331 333 331 330 329 330 329 327 326 326 326 327 327 330 331 331 330 329 327 326 327 327 328 328 329 328
336 338 338 332 327 326 325 326 329 335 337 340 339 333 332 332 333 332 333 334 332 333 333 332 332 332 332 331 333 335 338 336 334 337 334 332 334 333 331 331 329 326 325 326 326 327 328 328 327 328 328 327 327 327 327 326 327 330 329 331 334 331 329 328 328 328 326 326 325 325 326 327 330 331 330 330 329 329 328 327 327 328 328 328 328
334 337 339 332 329 325 325 326 328 337 339 340 338 334 331 331 331 332 333 332 332 333 333 333 332 333 333 332 332 333 336 336 335 337 333 332 334 333 332 331 330 328 327 326 325 326 327 328 327 328 328 328 327 326 327 327 328 329 328 332 334 332 330 329 329 328 326 325 323 324 325 327 330 331 330 330 329 329 329 328 328 327 327 327 327
334 337 339 336 333 326 326 326 328 338 339 335 335 334 333 332 332 333 332 332 332 332 333 333 332 333 335 335 333 333 335 333 335 338 336 334 335 334 333 330 328 329 328 326 325 325 325 327 327 327 327 327 326 326 327 327 328 328 329 333 334 334 332 330 329 328 327 325 323 323 325 327 329 330 330 330 329 329 329 328 328 327 327 326 327
338 339 340 339 336 328 326 327 331 339 337 332 333 333 333 332 333 335 333 332 332 332 332 333 332 333 336 337 336 335 334 332 335 338 337 336 335 335 334 331 327 328 328 327 326 325 325 326 327 327 326 325 325 327 327 328 329 330 331 332 333 334 333 331 330 329 327 325 323 323 325 326 327 329 330 329 327 328 329 328 328 328 327 326 326
340 340 339 339 336 330 327 327 331 337 336 334 334 333 334 333 333 335 334 332 332 332 332 332 331 331 336 337 337 336 333 332 334 336 337 335 334 334 334 332 329 327 328 326 326 327 327 326 326 326 325 324 326 327 328 328 329 329 330 331 333 334 334 333 331 330 328 325 322 322 324 325 326 328 329 329 327 328 329 328 328 328 327 326 327
341 341 339 337 337 333 330 327 330 336 338 337 335 335 336 336 335 335 334 334 333 332 333 333 332 331 333 334 335 336 334 334 333 334 335 334 333 333 332 332 330 328 328 327 328 330 329 327 327 326 325 324 327 329 329 329 329 329 329 330 332 333 333 334 332 330 328 324 321 321 323 325 325 327 327 327 328 328 328 328 329 328 326 326 326
340 340 340 337 338 338 336 335 334 336 340 340 338 338 339 341 340 338 337 334 331 332 333 335 336 334 333 333 334 335 334 334 333 331 332 333 334 334 332 332 332 328 327 328 329 331 331 329 328 328 327 327 330 330 329 329 329 328 329 331 332 331 332 333 332 330 329 324 320 321 323 325 325 325 324 326 329 330 327 327 328 327 327 325 325
333 334 336 338 341 341 340 341 338 338 340 341 340 339 340 341 340 338 336 334 332 333 335 337 337 336 335 335 334 335 335 334 335 333 331 332 334 334 333 333 333 330 329 329 330 331 331 331 330 330 331 331 332 331 330 329 328 327 329 330 330 331 332 333 332 331 330 326 321 321 322 324 325 323 323 324 329 331 328 327 327 326 326 326 325
333 331 331 334 340 343 343 342 341 340 341 342 341 339 339 338 337 335 333 334 335 335 337 338 338 336 336 336 335 334 334 335 337 335 332 333 333 334 333 333 334 332 331 331 331 331 331 331 331 331 332 332 333 331 329 329 328 328 327 328 328 330 332 332 333 332 331 328 323 322 322 323 324 323 324 324 327 330 330 329 328 326 326 325 324
335 334 333 331 334 341 343 341 339 340 341 342 342 340 338 337 334 333 332 334 334 334 336 336 335 334 334 335 336 336 335 336 337 335 333 332 332 334 335 334 334 333 333 333 333 333 331 331 331 331 332 333 333 331 330 329 328 328 328 328 328 329 331 331 332 332 332 330 326 323 323 323 323 324 326 326 327 330 331 331 330 328 327 326 324
335 336 338 335 331 334 341 341 340 341 340 340 340 339 338 336 335 333 333 332 332 332 333 333 332 332 333 333 335 336 335 336 336 334 333 332 333 335 335 334 333 334 334 334 334 334 332 331 331 332 332 333 333 331 331 330 329 329 328 329 329 329 329 329 330 331 331 331 329 327 326 324 324 325 325 325 326 328 331 332 331 330 329 329 327
336 337 338 337 333 331 339 342 342 342 338 337 338 338 337 336 333 333 332 331 331 332 331 333 333 333 333 334 334 335 334 336 335 332 334 334 334 335 336 335 335 335 335 334 334 334 332 331 331 332 332 332 332 331 330 330 330 329 329 329 329 329 329 329 329 329 330 332 331 330 329 326 325 326 325 324 325 326 328 330 331 331 331 330 329
335 336 334 334 335 335 339 340 340 339 335 334 336 336 336 334 333 332 331 331 331 331 331 333 333 333 334 335 335 334 334 334 332 332 334 335 333 334 335 335 335 335 335 334 332 331 331 331 332 332 332 331 331 331 330 330 329 329 328 329 328 328 328 328 328 328 329 331 331 331 330 328 327 327 327 326 325 325 326 327 329 331 332 331 330
335 335 333 334 337 338 338 338 338 336 333 332 333 334 334 333 333 333 332 333 332 332 333 333 333 333 334 335 336 334 333 332 331 333 335 334 333 333 332 332 334 334 333 332 330 330 331 331 331 331 330 330 330 330 329 329 329 328 327 327 328 327 326 325 326 327 328 329 329 330 330 330 330 329 329 328 327 327 326 326 327 329 331 332 331
336 335 336 339 339 338 337 337 336 334 332 332 331 332 334 334 334 333 333 333 332 333 334 334 333 332 332 333 335 335 333 332 332 333 334 334 334 332 330 331 332 331 331 331 330 330 331 330 330 330 330 330 330 329 329 329 328 327 326 327 327 326 325 324 324 325 326 327 327 327 328 328 329 330 330 330 329 329 328 327 327 327 329 331 332
336 336 338 340 338 337 336 335 334 332 332 331 330 331 333 335 335 333 332 331 332 332 332 333 332 331 330 330 332 334 333 332 332 331 331 333 334 332 331 331 331 330 331 331 331 331 330 330 329 329 329 329 329 328 327 327 326 325 326 326 326 326 327 326 325 324 323 324 325 326 326 327 328 329 329 329 330 330 329 329 328 327 327 329 330
334 335 337 338 336 335 334 333 332 332 330 328 329 328 329 334 335 333 331 331 332 331 330 330 331 331 330 329 330 331 332 330 329 329 329 331 333 332 331 331 331 330 332 332 331 331 329 328 328 327 327 326 325 325 324 324 325 326 327 328 327 328 330 327 325 323 322 322 323 324 324 325 326 327 327 327 328 329 330 329 329 328 327 327 329
333 335 335 336 335 333 333 332 331 330 327 326 326 326 327 331 333 333 332 332 332 330 328 328 329 331 330 330 330 330 330 328 328 328 329 331 332 331 330 331 332 331 332 332 331 330 329 328 327 326 325 325 324 324 325 326 328 329 329 329 329 329 330 328 324 322 321 321 321 322 323 324 326 327 327 328 329 330 329 330 331 330 328 328 328
333 333 333 334 332 331 330 331 330 327 324 323 325 324 326 329 331 332 332 330 329 328 326 327 328 330 330 330 330 329 329 328 328 329 328 329 330 331 331 331 331 331 332 331 331 330 329 328 327 325 324 325 326 326 328 329 329 330 328 329 330 330 329 327 325 323 321 320 320 321 321 322 325 327 329 329 329 329 329 330 331 330 329 327 328
332 332 332 332 330 329 328 329 329 325 323 324 325 325 325 328 329 329 329 327 326 326 325 326 327 327 328 328 328 327 326 326 327 327 327 328 330 330 330 329 329 330 331 331 331 330 329 329 328 326 325 327 327 328 329 329 328 328 327 328 329 330 330 327 326 324 321 320 320 320 320 321 323 325 327 327 327 327 328 328 329 329 328 328 329
332 331 331 330 329 329 328 328 329 326 324 325 324 323 324 327 328 327 326 324 324 323 322 323 323 323 324 325 325 325 325 325 325 326 327 327 327 327 328 329 329 329 330 330 328 327 328 328 328 328 327 328 328 327 328 328 327 326 327 327 326 329 332 328 325 324 322 320 318 318 319 319 320 321 322 322 323 323 323 325 326 326 326 328 330
333 332 331 330 329 329 326 328 329 326 324 326 323 322 325 328 327 324 324 323 322 322 321 320 320 321 320 320 322 323 323 324 325 326 326 326 325 324 326 328 328 329 329 329 329 327 327 327 328 328 327 327 327 327 327 327 326 326 326 327 326 330 331 326 324 324 323 322 320 319 320 320 320 320 321 321 322 323 322 323 323 323 324 324 325
333 332 331 330 329 328 327 328 329 324 324 326 323 322 326 327 326 323 322 321 320 321 320 320 320 320 319 319 320 321 321 321 322 323 323 324 325 325 325 326 327 327 328 328 329 328 327 326 326 326 326 327 326 327 327 326 326 326 325 326 327 328 328 326 326 325 324 323 323 322 321 322 323 321 320 321 322 323 323 323 324 323 323 323 323
332 332 331 330 330 330 328 329 328 322 323 326 323 322 326 326 325 322 321 319 318 319 319 319 319 319 319 319 319 319 319 320 320 320 321 324 325 325 324 325 327 326 326 327 327 327 327 326 326 326 326 328 327 327 328 326 325 325 325 325 326 327 326 326 327 328 328 327 324 320 317 318 320 317 317 318 319 321 322 322 323 324 323 323 325
331 333 332 330 330 330 329 331 328 322 323 325 323 323 325 324 323 321 320 319 317 317 318 318 318 319 319 319 318 318 319 319 319 320 321 321 322 322 322 323 326 326 324 325 325 326 327 326 327 326 327 328 328 328 327 326 326 326 326 325 327 328 325 325 326 326 327 329 327 321 315 313 313 314 315 316 317 319 318 319 320 321 323 322 323
330 332 332 330 330 330 330 331 327 321 323 325 324 324 324 323 322 320 320 318 316 316 317 317 317 318 319 318 317 317 317 318 318 318 319 320 319 320 320 322 323 323 323 323 323 324 325 324 326 326 327 328 327 328 328 327 327 327 326 325 324 323 320 320 323 324 324 326 328 324 316 311 311 313 315 316 317 318 318 319 319 320 322 322 322
329 331 333 332 331 330 330 331 326 320 323 325 324 324 323 322 321 321 319 317 317 318 318 317 317 318 319 318 316 315 316 317 318 318 318 319 319 319 321 321 321 321 321 322 322 323 322 323 325 326 325 326 326 327 327 327 327 326 325 324 321 318 315 314 315 318 318 318 321 320 313 311 313 313 314 314 314 315 315 315 316 316 316 318 320
328 331 333 332 331 330 330 330 324 318 322 325 325 324 323 322 322 320 318 317 318 318 317 317 318 318 318 318 316 315 315 315 316 317 317 317 317 318 320 320 320 320 320 320 320 320 320 322 323 323 321 321 322 324 325 325 325 323 321 320 317 314 313 311 310 311 311 311 315 314 310 309 311 311 313 314 313 312 313 312 311 311 311 312 314
Wind_Speed
23 25 23 22 20 22 23 24 24 23 22 21 21 20 21 21 22 23 24 24 25 26 26 27 27 27 27 26 25 24 23 23 21 20 19 18 17 16 16 16 16 16 16 16 17 16 16 16 16 15 14 14 14 13 13 14 15 16 17 18 18 18 18 18 18 16 16 17 16 16 16 15 14 13 13 14 14 14 15 15 16 17 17 17 17
28 25 25 23 22 22 23 24 24 23 22 22 21 20 21 21 21 22 23 24 24 25 25 25 25 25 25 24 24 23 22 21 20 19 18 17 16 16 16 16 15 16 16 16 17 17 16 16 15 15 15 14 14 14 14 14 14 16 17 17 17 17 17 17 16 16 16 17 17 16 15 14 14 13 13 12 12 13 13 14 15 16 15 15 16
31 26 25 23 23 22 23 23 24 24 23 23 22 21 21 20 20 21 22 23 23 23 23 22 22 23 22 22 22 21 21 20 18 17 16 16 15 15 15 15 15 15 16 16 16 16 16 16 15 14 14 14 14 14 14 14 15 16 17 18 18 18 17 16 16 17 17 17 17 15 14 14 13 13 13 13 13 13 14 14 14 15 15 16 16
31 27 25 24 23 22 23 23 23 24 24 23 22 22 21 21 20 20 21 22 22 22 21 21 20 20 20 20 19 19 19 18 17 16 16 15 14 14 14 14 14 15 15 15 15 15 15 15 14 13 13 14 14 14 14 14 15 17 19 20 20 19 18 16 15 16 17 17 17 16 14 14 13 12 13 14 14 14 14 14 14 15 15 16 16
30 28 26 24 22 23 24 23 24 24 25 24 23 22 21 21 20 20 20 21 21 21 21 20 19 19 19 18 18 18 18 17 16 15 14 13 13 13 13 14 14 14 14 14 14 14 14 14 14 13 13 13 14 14 14 15 16 18 21 21 20 19 18 15 15 15 16 16 16 16 15 14 13 13 13 14 15 15 14 13 13 14 14 15 15
30 28 27 25 23 24 24 24 24 24 25 24 24 23 22 21 21 21 20 20 20 20 20 19 19 19 18 18 17 17 16 16 15 14 13 12 12 12 13 14 14 14 14 13 13 14 15 14 13 12 13 13 13 14 15 16 17 19 21 21 20 19 17 15 15 14 14 14 15 15 15 14 14 13 13 14 14 13 12 13 13 14 14 14 14
28 27 26 25 24 24 24 24 23 24 25 24 24 23 23 22 21 21 21 20 19 19 18 18 18 18 18 18 17 16 15 14 14 13 12 12 12 12 12 13 13 14 14 13 13 13 14 14 13 13 13 13 13 14 16 17 17 18 18 19 19 17 16 15 14 13 13 13 13 14 14 14 13 13 13 13 13 12 11 12 13 13 14 14 14
25 25 25 24 24 24 23 23 23 23 24 24 24 24 23 22 22 22 21 20 19 18 17 17 16 17 17 17 17 15 14 13 13 12 12 12 13 12 12 13 13 13 13 13 13 13 14 13 13 13 13 13 14 15 16 17 17 17 17 17 18 16 14 14 13 12 11 12 13 13 14 14 13 12 12 12 12 12 12 12 13 12 13 14 13
23 24 24 24 23 23 23 23 22 22 23 24 24 24 24 22 22 22 21 20 19 17 16 16 15 15 16 16 16 15 14 13 12 12 11 11 12 12 12 12 12 12 12 12 12 12 12 11 12 13 13 13 14 15 15 16 16 16 16 17 17 14 12 12 12 11 10 11 12 12 11 13 14 12 10 11 11 12 13 14 13 12 13 13 13
23 24 23 23 23 23 23 22 22 22 23 24 25 25 24 23 23 22 21 20 18 17 15 15 15 15 15 15 15 15 14 13 12 12 11 11 11 12 12 11 11 11 11 11 11 11 10 9 11 13 13 13 13 13 13 13 13 14 14 14 13 12 11 12 12 11 10 10 10 10 10 12 13 11 9 10 10 12 13 13 13 13 13 12 12
22 23 23 23 23 23 23 22 22 22 23 24 25 25 24 24 23 22 21 19 18 16 15 15 15 15 15 15 14 15 14 14 13 12 12 11 11 11 11 11 10 10 10 10 10 10 9 8 9 11 12 13 12 10 10 10 10 11 11 10 9 10 11 12 12 11 11 10 10 10 11 12 13 11 8 9 10 12 13 13 13 13 13 12 12
21 22 23 23 23 23 23 22 21 21 22 23 24 25 24 24 23 22 21 19 18 16 15 15 16 15 15 15 15 15 14 14 13 12 12 12 12 11 10 10 9 9 9 10 10 9 8 7 8 9 11 12 12 9 8 8 8 9 9 8 8 9 11 13 13 12 11 10 10 11 12 12 12 10 9 9 11 11 12 12 13 13 13 10 10
23 24 24 24 23 23 23 21 21 21 21 22 23 24 24 24 23 22 21 19 18 16 15 15 16 15 15 16 16 15 14 14 12 12 12 12 12 11 10 9 9 8 8 9 8 7 6 5 7 8 10 11 13 11 8 8 8 8 8 9 9 10 12 15 13 11 11 10 10 11 12 11 11 11 10 10 11 11 10 11 12 13 13 10 10
26 26 26 25 24 23 23 22 21 20 20 21 22 23 24 24 24 23 21 20 18 17 16 15 15 15 16 16 16 15 14 13 12 11 11 11 12 11 10 10 9 8 8 7 7 6 5 6 7 8 9 10 12 12 10 9 8 8 9 9 9 12 15 15 13 11 11 10 11 11 11 11 11 12 11 11 11 11 10 10 11 13 12 10 11
28 28 25 24 25 24 23 22 21 20 20 20 21 21 22 23 24 23 21 20 18 16 15 15 15 15 16 16 15 14 13 12 11 11 11 10 10 10 10 10 9 9 8 7 7 6 5 6 7 7 9 9 12 13 12 10 9 9 10 9 10 13 15 14 12 11 10 10 10 10 10 10 11 12 12 11 11 10 9 10 10 11 11 10 10
28 27 25 25 25 24 23 22 22 21 20 20 21 21 22 23 24 22 21 20 18 16 15 15 14 15 15 14 13 13 12 11 11 10 10 10 9 9 9 9 9 9 8 8 7 6 6 7 7 7 9 10 11 13 14 12 10 10 9 9 11 13 14 13 11 10 10 10 9 10 10 11 11 12 13 12 11 10 9 9 9 9 9 9 10
27 26 25 24 25 25 24 23 22 21 20 20 20 21 21 22 23 22 21 19 17 15 15 15 14 15 14 13 12 12 11 10 10 9 9 9 8 8 8 8 8 8 8 9 8 7 7 7 7 7 9 9 9 11 14 14 11 10 8 8 11 13 13 12 10 9 9 9 9 9 10 10 10 11 12 12 12 11 10 8 8 8 9 9 9
27 26 25 24 24 24 24 23 22 22 21 20 20 20 21 22 22 21 20 18 16 15 15 15 15 15 13 12 11 10 10 10 9 8 7 7 7 7 8 8 7 7 8 8 8 7 6 6 6 6 8 8 7 9 12 15 13 10 8 8 10 13 13 12 10 9 8 8 8 8 9 9 9 9 10 10 11 11 10 8 8 8 9 8 9
26 26 25 24 25 24 24 24 23 23 22 21 20 20 20 21 21 20 19 18 17 16 15 16 15 14 13 11 10 9 9 9 8 7 6 6 6 6 6 7 6 6 7 7 7 6 6 5 5 5 6 7 5 6 9 14 13 10 8 7 10 13 14 12 10 8 7 7 7 7 8 8 8 8 9 9 9 11 12 10 8 8 8 8 7
24 25 25 24 25 25 24 24 23 23 22 21 21 21 21 21 21 20 20 18 18 17 16 16 15 14 13 12 11 10 10 8 7 7 6 5 5 5 5 6 5 5 6 6 6 6 6 5 5 4 6 7 5 5 7 13 13 9 8 7 8 12 13 12 9 8 7 6 7 7 8 8 8 8 9 9 9 10 12 12 9 7 7 7 6
21 22 24 24 24 23 23 23 23 22 21 21 20 20 20 20 20 20 21 19 17 17 16 16 15 14 13 13 13 11 11 10 8 7 7 6 6 5 5 5 5 5 5 5 6 5 6 5 5 4 5 6 5 5 7 11 12 9 8 6 6 9 12 12 9 8 7 5 6 7 8 8 9 9 9 9 9 8 11 12 11 9 8 7 6
20 21 23 24 23 22 22 23 22 21 21 20 20 20 19 19 19 19 19 18 17 17 16 16 15 13 13 13 12 11 12 11 9 9 8 6 7 7 6 5 4 4 4 5 5 6 6 6 6 5 5 6 6 6 7 10 11 9 8 5 4 8 11 11 9 7 5 5 6 7 8 9 10 11 10 10 9 8 9 11 12 10 9 8 7
11 15 20 22 23 22 22 22 22 21 20 20 20 19 18 18 19 18 18 18 17 17 17 16 14 12 12 11 11 11 11 10 10 11 8 7 9 8 7 6 5 4 5 5 5 6 6 7 6 6 5 5 5 6 7 10 11 10 8 4 3 7 11 11 9 6 5 4 5 7 8 9 9 10 10 10 10 9 9 10 12 11 9 8 8
10 12 16 21 22 23 22 21 21 20 19 19 18 18 18 19 18 17 17 17 17 17 16 13 12 12 10 10 10 10 10 10 10 11 10 9 11 10 8 8 7 6 5 6 6 6 6 7 7 7 7 5 5 5 7 10 12 10 8 5 3 5 10 10 8 6 4 4 5 6 8 9 10 10 10 10 10 9 10 10 11 11 10 9 9
24 18 18 22 22 23 22 21 21 19 18 17 18 18 19 19 18 17 16 16 16 16 14 11 11 11 10 9 9 9 10 10 11 11 10 10 11 11 10 10 10 8 8 7 6 6 6 8 8 8 8 6 4 5 6 10 12 10 8 6 4 4 8 9 7 6 5 4 5 6 7 8 10 10 9 10 10 10 10 10 10 11 10 10 9
29 23 22 22 21 22 22 23 21 18 18 19 20 19 19 19 18 17 16 15 15 13 12 11 10 10 10 9 9 10 11 11 12 13 13 11 12 13 13 12 12 10 9 8 7 7 7 8 9 8 8 6 4 4 6 9 11 10 7 5 4 5 6 8 8 6 5 5 6 6 7 8 9 9 9 9 10 10 10 9 10 10 10 10 9
27 23 21 18 18 22 24 24 21 19 21 21 22 21 20 19 18 17 16 15 14 13 12 12 11 11 10 10 10 10 11 13 14 16 15 13 13 15 15 14 13 12 10 8 7 7 6 7 8 7 7 6 4 3 5 8 10 9 6 5 5 5 5 7 8 7 6 6 6 6 7 7 8 8 8 8 8 10 10 9 9 9 10 9 9
24 18 16 18 22 25 26 25 22 22 23 22 21 21 21 20 19 17 16 14 12 12 12 12 12 11 11 11 11 11 12 13 16 17 15 12 12 14 15 14 13 12 10 8 7 7 6 6 7 6 6 6 4 2 2 5 7 6 5 5 6 6 6 6 8 8 7 7 6 6 7 7 7 8 8 7 7 9 11 10 10 9 10 9 9
21 20 19 24 27 26 26 25 24 23 21 21 21 21 21 20 20 18 16 14 12 11 12 12 12 12 13 14 13 14 14 14 15 15 13 12 11 11 13 13 12 11 10 9 8 6 5 5 6 6 6 6 4 2 2 4 6 5 4 7 7 7 7 8 10 10 9 8 7 6 7 7 6 7 7 7 7 8 8 10 11 10 9 9 10
15 21 26 29 27 25 25 22 22 22 18 20 21 19 20 21 20 18 16 14 13 12 13 14 13 13 15 16 16 16 16 15 15 13 13 13 11 11 12 12 12 12 11 9 8 6 4 5 6 6 6 5 4 3 2 5 7 4 3 6 7 5 6 9 11 11 9 9 8 7 7 7 7 7 7 7 8 8 6 7 9 9 8 8 9
13 13 18 24 27 25 23 22 21 20 18 18 19 19 19 20 18 16 15 15 14 13 14 15 14 14 16 17 18 18 17 17 17 16 15 14 13 12 12 12 12 11 11 9 7 5 4 5 6 7 6 5 4 3 3 7 8 5 5 7 6 5 5 7 10 10 9 9 9 9 8 8 8 7 6 7 9 8 6 5 6 6 7 8 9
7 10 9 10 22 27 23 23 23 21 20 19 17 17 17 17 17 14 13 14 14 13 13 15 15 15 17 19 19 18 17 17 17 18 16 16 14 13 12 13 11 10 11 10 8 6 5 6 7 8 7 6 5 4 5 7 8 7 6 7 6 7 6 6 8 8 8 9 9 9 9 9 9 8 7 6 8 9 7 6 5 5 6 7 9
15 16 9 11 10 22 24 22 23 24 23 20 17 17 14 14 15 12 10 11 11 11 11 14 14 14 16 19 20 19 19 18 17 17 17 18 16 12 13 13 11 11 11 10 9 8 8 9 10 10 9 8 7 6 7 8 9 7 7 6 6 7 7 7 7 7 8 9 9 9 10 9 9 9 8 7 7 9 8 7 7 5 5 6 8
20 18 16 10 11 11 21 22 22 23 20 18 18 17 14 13 13 10 8 7 7 8 10 12 12 12 14 16 19 20 20 19 17 16 16 17 14 12 13 12 11 11 11 11 12 11 11 11 11 11 10 9 8 9 8 7 8 7 7 6 6 6 6 7 6 6 8 9 9 9 9 10 9 8 8 7 7 8 9 9 9 7 6 6 6
23 19 20 17 9 10 16 19 17 18 16 16 16 15 15 14 12 9 8 6 6 9 9 9 9 11 12 13 15 18 19 19 18 16 13 12 12 12 13 13 11 12 12 12 12 13 13 13 12 12 11 10 10 10 9 7 7 7 7 6 6 6 5 6 5 5 6 9 10 9 9 10 10 9 8 8 8 8 9 10 10 9 8 7 6
24 22 21 22 17 13 14 16 14 16 15 13 14 14 15 13 11 10 8 7 7 8 7 6 7 8 11 12 14 15 16 18 18 15 13 12 12 12 13 13 13 14 14 14 13 13 14 13 12 12 11 11 11 11 9 8 7 7 7 8 7 5 4 4 4 5 5 6 8 9 10 11 11 11 10 9 9 9 9 10 11 11 11 10 8
25 24 24 24 21 17 15 16 14 15 15 14 15 15 15 13 11 9 6 5 4 6 6 6 5 6 8 11 13 13 14 16 16 15 14 12 11 13 13 12 13 14 15 15 14 14 14 13 12 11 11 11 12 11 9 7 6 6 7 7 6 3 2 1 1 4 6 6 6 7 8 10 12 13 12 11 11 11 11 11 12 12 12 12 11
26 25 25 24 21 19 19 18 16 16 16 15 16 16 15 14 11 8 7 6 3 3 5 5 5 4 6 8 10 12 13 14 14 14 14 10 10 13 14 12 12 13 14 13 13 13 13 12 12 12 12 12 11 11 10 8 6 6 4 4 6 5 4 4 5 5 5 6 6 6 5 6 9 11 13 13 13 14 14 14 14 14 14 14 14
28 26 25 24 22 23 22 20 19 17 15 14 15 15 15 14 10 10 10 8 5 2 1 1 1 2 4 6 8 10 11 12 13 13 12 10 10 11 13 13 14 14 13 12 12 13 12 12 13 13 13 11 11 10 10 9 7 5 3 2 5 4 3 4 7 7 3 3 4 5 5 7 8 8 9 10 11 13 14 16 16 17 16 16 15
29 28 28 28 28 27 25 23 20 17 15 14 14 14 15 15 13 13 13 10 8 6 5 3 3 4 4 4 6 7 8 10 12 13 12 10 9 10 13 13 14 13 12 11 11 12 13 13 12 12 12 10 9 9 8 8 6 5 4 3 4 4 3 3 5 5 2 3 5 5 5 6 8 8 8 8 9 10 12 14 17 19 19 18 18
27 31 32 33 32 29 26 23 19 16 15 15 15 15 16 18 17 16 14 12 11 8 6 4 5 7 6 6 6 6 6 7 9 10 9 7 6 8 10 9 9 8 8 8 10 11 12 12 11 11 11 9 8 8 7 6 5 3 2 2 4 5 6 4 4 4 2 2 4 5 5 5 6 6 7 7 8 9 11 11 12 16 19 20 19
26 32 36 35 32 28 25 23 19 16 15 15 16 14 15 19 18 17 16 15 12 8 6 5 6 8 8 7 7 6 6 7 8 8 7 5 5 6 6 5 5 5 6 7 8 10 11 12 12 11 10 9 9 9 9 6 5 4 2 0 3 5 6 5 5 5 5 4 3 3 3 4 4 3 3 4 6 8 9 9 9 11 16 18 18
28 31 34 33 31 28 26 23 19 17 17 17 15 14 15 17 17 18 19 18 16 12 11 9 9 9 8 7 7 7 7 7 8 7 6 5 5 5 5 3 3 5 6 7 7 7 7 8 10 12 11 9 9 9 10 8 6 5 3 1 1 1 2 3 3 3 4 5 4 4 4 3 4 3 2 3 6 8 8 9 11 10 11 13 14
30 30 32 33 31 29 26 23 20 18 19 18 15 15 17 18 18 19 18 19 19 18 17 15 13 12 10 7 6 6 6 6 7 6 6 5 5 5 4 3 2 4 6 6 6 5 5 7 9 11 11 10 10 9 9 9 7 5 2 1 1 2 1 2 3 2 4 6 6 6 6 4 3 4 4 4 5 7 7 8 11 11 10 11 11
29 30 32 33 32 30 27 24 22 20 21 20 17 16 19 21 21 20 18 19 19 18 18 16 14 12 10 8 8 7 6 6 6 6 7 6 6 5 3 3 2 2 3 3 3 3 4 6 7 9 9 9 8 7 8 7 6 5 3 3 1 1 1 2 2 2 4 6 6 7 7 6 4 4 4 5 5 5 6 6 9 10 10 11 11
25 29 32 32 31 29 27 25 23 22 23 22 18 18 22 24 24 22 20 19 17 15 15 15 14 12 10 10 10 9 8 7 7 8 8 8 8 6 4 3 2 1 1 1 1 2 3 4 6 7 7 6 6 6 6 5 7 6 3 7 4 2 2 1 0 1 3 6 7 8 7 7 6 6 7 7 6 5 5 6 7 9 11 12 12
22 26 29 29 29 29 28 27 25 24 25 23 20 20 24 26 25 23 20 19 17 14 14 14 14 14 13 12 10 9 9 9 9 9 9 10 9 7 5 4 3 3 3 3 3 3 3 3 4 6 5 4 5 5 6 6 7 5 3 5 4 5 3 2 3 0 1 3 6 8 9 9 8 9 10 9 8 7 5 5 6 7 9 11 11
20 25 28 29 29 30 29 28 26 27 27 25 21 21 25 27 25 22 19 17 16 16 15 14 13 14 13 12 10 10 10 9 9 10 11 11 10 9 6 5 5 5 5 6 6 6 6 4 4 4 5 5 4 4 7 8 7 4 4 3 4 5 5 4 4 2 2 0 4 5 8 12 10 11 13 10 8 7 7 7 7 6 6 7 8
18 22 26 28 29 30 31 30 29 30 29 27 24 23 25 26 23 20 18 17 16 17 16 14 13 13 14 14 13 12 11 10 10 12 13 13 12 11 9 8 8 8 8 8 9 8 7 5 4 3 3 4 3 3 5 6 6 6 7 7 7 8 8 8 7 5 4 2 2 2 7 13 12 14 15 12 10 9 9 10 9 9 8 7 6
15 18 22 26 30 32 33 31 30 31 31 28 25 25 26 26 23 20 19 19 20 19 17 16 15 15 15 15 14 13 13 13 14 15 15 15 14 12 11 12 12 12 12 11 11 10 8 7 6 6 6 6 6 6 5 5 7 7 7 8 9 8 7 8 8 7 5 3 1 1 5 8 8 11 16 18 20 19 19 20 20 19 19 17 14
14 17 19 23 28 31 33 34 33 34 34 30 27 27 27 25 22 20 21 22 22 21 20 19 17 17 16 15 13 13 13 15 17 17 16 15 14 13 12 13 13 13 13 12 11 10 9 9 9 9 10 10 10 10 10 10 10 10 9 9 9 8 7 7 7 8 6 5 3 2 5 7 5 5 11 15 19 21 21 23 24 24 23 22 21
Wind_Direction
173 168 165 165 168 165 158 160 160 159 155 150 146 142 138 132 128 125 125 123 120 119 118 118 117 118 118 118 116 116 116 115 113 112 112 111 111 108 106 104 96 88 93 98 99 100 103 106 108 111 112 113 113 112 111 112 113 113 115 114 112 110 109 105 100 103 104 96 90 93 96 93 86 85 88 89 88 87 85 84 83 83 80 75 74
169 166 164 164 167 166 161 161 162 161 156 152 148 145 141 135 131 127 128 126 124 122 121 121 120 120 119 118 117 115 113 112 111 111 110 110 110 109 108 107 99 93 97 102 102 101 103 105 106 110 112 115 114 114 115 113 115 118 119 117 116 116 113 109 105 107 104 100 97 93 94 94 88 87 88 91 89 85 81 82 84 85 82 76 74
165 163 163 163 166 165 161 161 162 162 157 154 151 148 143 138 135 130 129 128 127 125 124 125 123 122 122 121 119 118 115 113 111 110 109 110 110 110 110 109 104 99 99 101 100 98 101 106 107 109 112 117 117 115 118 117 117 119 119 115 113 112 110 108 108 108 106 107 107 102 99 97 93 91 90 91 89 85 79 82 84 82 82 77 74
163 161 162 162 164 163 161 162 162 163 159 157 154 150 146 141 137 133 129 128 129 127 127 127 126 124 123 124 122 122 119 117 114 113 113 112 113 114 114 113 110 105 102 101 98 95 98 103 105 108 111 115 117 118 119 120 121 122 118 113 111 109 106 105 106 109 111 114 115 110 105 100 97 94 93 93 92 87 81 83 84 81 80 76 76
161 160 161 160 162 162 163 163 161 163 161 159 157 151 148 144 139 135 131 129 129 127 128 128 128 127 125 123 122 123 122 121 118 116 114 113 115 117 119 116 113 108 105 103 100 99 103 103 100 103 110 114 117 118 120 122 123 122 118 113 111 109 105 103 107 111 113 115 117 115 108 103 100 95 95 98 96 92 88 87 86 83 80 75 74
159 159 159 158 161 164 165 164 161 162 162 161 159 154 149 146 141 136 132 130 128 128 128 128 127 126 125 122 120 120 121 121 118 115 112 110 110 115 119 115 113 110 107 107 105 104 107 104 97 100 110 116 118 119 122 123 123 123 119 114 111 108 106 105 107 110 112 116 118 117 113 108 104 101 99 98 97 98 97 91 87 85 82 78 76
157 157 157 156 160 164 165 162 161 161 161 162 160 155 151 147 143 138 134 132 129 128 128 127 126 124 124 122 121 120 120 121 119 117 113 109 107 112 115 114 113 111 111 111 110 107 106 99 93 102 111 115 118 122 125 125 124 124 122 119 118 115 112 109 108 109 109 114 118 118 114 109 105 105 106 104 100 99 101 95 88 86 84 81 79
154 156 155 156 159 162 162 160 160 160 160 162 161 157 153 149 145 141 137 134 130 129 129 129 126 124 122 121 121 121 122 121 121 121 118 114 111 112 112 115 116 115 115 113 112 111 107 94 90 102 111 117 123 127 128 130 129 129 129 129 129 123 117 113 113 111 110 114 116 116 113 112 110 110 110 111 105 98 100 100 95 93 88 84 81
153 156 155 155 156 156 158 160 160 159 159 161 161 158 154 151 148 144 141 138 134 131 132 132 130 126 121 118 119 120 122 121 122 123 124 122 118 117 116 121 123 119 116 114 114 114 111 95 90 101 111 121 127 129 132 134 134 135 135 137 137 129 121 119 119 116 115 118 114 114 117 121 119 115 113 113 109 103 105 105 101 95 91 88 84
150 154 155 153 152 154 156 160 161 160 161 159 160 159 156 155 151 148 145 142 139 135 134 134 132 128 121 118 117 118 121 123 126 126 128 130 126 124 124 125 126 122 118 119 122 122 117 102 96 99 113 128 128 128 133 136 137 140 141 144 144 140 137 131 130 124 121 121 117 115 116 122 121 117 117 114 110 110 108 104 100 93 92 91 87
147 151 153 152 151 153 154 158 160 160 161 159 159 160 158 157 154 151 148 146 143 138 135 135 133 129 124 121 120 121 122 125 127 128 128 131 131 130 130 132 132 129 127 128 130 128 119 110 104 101 114 132 137 132 132 137 140 143 144 146 146 150 154 145 141 133 124 124 122 120 118 121 121 119 116 112 112 114 112 105 103 99 97 95 93
147 150 151 151 151 151 153 156 157 159 160 159 158 159 159 158 157 154 151 150 146 141 138 137 136 132 128 125 124 123 124 126 127 128 127 128 130 133 137 139 140 137 135 137 135 128 121 115 112 109 115 134 149 147 138 141 142 143 139 135 141 153 155 148 144 135 127 125 123 123 125 124 121 119 113 109 112 113 112 110 109 105 102 97 93
148 150 151 150 150 150 151 152 154 157 158 157 157 158 160 160 159 157 155 153 149 145 142 140 138 135 131 127 126 124 124 125 126 127 127 128 128 132 139 143 143 141 141 144 143 134 130 125 119 119 119 132 150 159 152 147 144 137 128 127 142 148 145 143 140 134 128 124 123 126 129 126 123 122 117 112 112 111 111 112 112 109 106 100 96
151 152 152 151 149 150 150 149 151 152 155 155 156 158 160 162 162 161 159 157 153 148 144 142 140 137 132 128 125 125 126 125 125 128 128 129 130 132 136 142 145 146 147 149 149 143 139 131 127 124 123 131 148 163 164 154 146 133 122 125 142 141 140 142 138 133 128 123 123 128 130 128 128 126 120 116 115 116 115 114 114 111 108 103 101
154 153 152 151 148 149 150 148 149 150 153 154 155 157 160 163 164 163 162 159 154 149 145 144 142 137 132 128 126 127 127 125 126 129 129 130 132 135 137 140 144 146 149 150 148 146 142 135 134 128 129 134 144 160 169 162 150 136 123 119 137 142 144 144 138 135 129 127 128 131 133 132 132 129 125 119 118 118 117 116 115 114 114 109 107
156 155 154 152 149 150 149 148 149 149 151 153 154 155 159 164 166 166 163 158 153 149 147 145 141 137 133 128 129 132 131 129 130 131 132 134 135 138 139 139 142 146 148 149 149 147 143 138 139 132 132 135 139 154 166 167 155 141 127 120 141 149 150 147 141 140 131 127 128 133 140 140 137 132 127 122 121 118 115 116 116 118 117 112 108
154 157 156 153 150 149 148 148 148 147 150 151 153 154 158 164 166 165 160 156 153 150 149 147 144 139 137 137 139 141 138 134 133 133 135 137 138 137 137 140 143 146 148 148 148 146 143 141 142 137 135 133 132 147 162 168 158 147 132 121 145 155 157 154 145 143 134 128 126 133 142 144 145 139 134 129 124 120 120 118 115 116 112 109 106
154 158 158 155 151 149 150 149 148 147 149 150 152 154 158 163 164 162 157 155 154 152 152 150 147 144 146 149 149 147 145 142 137 136 139 139 140 139 137 140 143 144 147 148 148 145 144 145 146 145 143 137 128 137 157 165 159 153 137 118 143 156 159 157 151 146 139 135 132 136 141 145 150 148 147 140 129 126 126 120 116 119 116 115 111
155 161 161 158 153 153 153 150 150 150 150 151 153 157 160 163 161 158 156 156 158 157 154 149 147 151 157 156 154 155 156 152 144 137 137 142 144 143 141 141 143 143 148 153 153 154 153 154 154 156 152 145 131 124 146 160 160 157 140 114 135 154 159 158 156 151 146 147 146 147 149 151 155 156 159 154 140 134 132 127 126 125 124 124 120
157 159 159 159 157 157 155 150 152 152 151 152 155 160 161 161 158 156 158 162 163 161 156 151 154 163 166 163 164 167 166 158 145 139 138 149 157 155 155 153 152 148 150 159 163 164 164 167 164 164 159 152 138 116 133 153 159 158 144 115 123 150 160 163 161 156 155 160 163 160 160 161 159 160 162 161 154 145 139 135 132 130 128 129 127
159 159 158 161 161 158 154 151 152 150 149 152 157 161 159 159 158 157 161 166 164 160 158 159 167 172 172 174 176 172 167 158 152 165 164 160 173 181 176 170 169 165 160 163 170 174 175 179 173 169 164 156 146 127 131 149 156 156 147 120 116 148 160 167 166 163 167 173 176 170 167 167 160 159 160 160 159 153 146 141 136 134 134 135 132
161 159 161 164 163 159 155 152 150 147 149 155 159 159 156 157 160 161 163 165 165 164 166 170 176 177 180 184 183 176 168 163 170 187 184 175 184 192 196 193 189 187 184 175 175 179 181 184 178 174 170 165 161 143 137 146 152 154 149 125 117 158 166 168 169 169 172 180 185 178 172 168 162 159 159 158 160 160 151 145 141 138 141 142 139
150 156 163 167 166 163 158 154 150 148 155 160 160 156 155 157 163 167 165 166 169 173 175 178 181 183 187 190 189 185 179 178 184 188 191 201 198 194 203 206 205 206 202 191 184 184 184 186 180 182 187 184 171 149 143 146 152 156 151 126 113 161 169 167 169 176 176 188 192 183 175 169 166 165 162 159 161 163 153 148 145 144 150 153 153
151 168 174 174 172 167 161 158 153 155 163 161 159 157 158 162 166 169 169 172 177 181 182 181 183 189 195 196 198 195 190 189 192 195 199 211 207 197 205 211 210 212 211 202 191 188 187 189 191 196 203 199 179 155 147 150 156 160 155 143 118 150 168 170 170 178 179 196 197 183 177 169 170 172 169 166 165 163 159 155 152 152 156 159 165
171 183 189 182 177 171 165 164 160 160 160 154 162 167 164 166 170 174 178 178 183 186 182 183 188 195 200 204 211 209 204 200 201 206 208 217 217 207 207 213 212 211 213 208 196 192 190 193 201 209 215 213 191 162 149 155 161 164 160 151 138 145 171 180 181 188 189 202 201 183 177 171 172 176 174 175 175 171 168 164 160 160 162 161 167
172 187 192 181 176 172 170 172 167 159 154 155 167 172 169 171 177 181 185 186 190 193 185 186 197 202 204 209 214 215 218 216 212 211 213 220 222 214 210 212 212 212 213 211 201 195 192 195 204 215 225 224 204 166 148 155 162 166 165 149 147 154 174 190 194 199 200 202 202 185 177 172 170 175 180 187 187 180 176 175 171 169 169 166 168
175 187 182 169 176 181 179 174 168 164 164 168 169 171 175 178 183 187 190 193 197 201 196 192 199 208 210 213 213 213 220 223 220 215 214 218 218 215 211 210 211 212 213 210 208 203 198 198 204 214 224 222 206 171 146 154 162 166 166 152 157 158 165 192 201 206 206 203 201 187 180 178 173 177 185 194 195 187 182 182 183 179 176 173 170
172 170 161 167 184 189 184 175 174 175 173 175 172 174 182 183 187 193 197 200 203 210 210 200 199 209 217 221 219 216 219 226 229 223 217 218 219 215 210 209 212 213 212 210 211 208 205 204 201 203 213 212 200 186 160 166 174 183 190 181 179 174 166 185 198 204 208 201 196 188 185 185 180 182 190 195 193 192 189 188 192 191 186 182 176
163 153 163 181 190 189 185 179 180 183 179 179 179 180 186 188 191 196 201 205 211 220 222 215 207 210 219 224 225 223 224 229 235 234 229 226 224 218 213 212 215 216 215 212 209 206 204 203 198 195 202 205 209 259 261 201 189 200 211 193 186 181 177 186 194 201 206 197 186 185 192 196 191 191 201 201 191 196 199 193 196 201 202 196 187
151 163 179 185 187 187 184 180 181 186 188 188 187 186 190 194 196 198 205 210 216 223 228 227 218 216 221 224 226 226 228 232 236 241 241 237 234 230 223 217 219 219 215 210 203 203 200 196 194 194 202 213 245 274 225 180 175 176 182 182 184 177 181 191 193 199 207 199 185 180 192 205 207 207 214 205 192 203 213 200 200 205 209 206 198
78 159 196 189 184 185 180 177 184 189 195 199 197 195 197 200 202 203 211 216 219 222 226 229 230 230 227 228 228 225 228 235 240 243 245 243 239 239 234 222 220 218 214 209 200 203 204 199 197 201 213 233 263 259 186 167 162 155 158 172 178 170 176 191 193 200 207 203 196 190 191 204 217 221 219 205 196 207 218 207 208 210 209 210 208
93 181 239 231 189 184 179 180 188 190 191 196 194 193 194 200 206 208 214 219 221 225 227 234 244 241 235 234 229 225 228 232 239 243 244 246 241 239 236 224 216 211 213 212 203 207 215 212 212 215 225 243 253 217 186 176 162 153 159 167 170 168 172 183 194 206 208 204 205 205 200 201 216 225 221 206 199 210 223 222 218 218 214 212 213
176 189 225 285 232 188 180 179 180 180 182 182 178 179 181 190 201 203 205 211 219 230 234 237 244 240 237 237 230 227 232 232 239 240 240 247 245 238 234 223 215 210 211 212 210 214 222 222 221 222 224 239 240 202 186 178 163 154 152 152 155 161 166 175 193 213 217 212 212 218 217 211 214 221 222 216 208 212 221 230 232 235 227 215 215
168 174 185 237 279 215 181 174 171 170 172 168 164 165 165 170 177 180 180 185 208 232 237 232 232 232 233 236 231 229 232 233 237 238 241 250 249 244 238 225 217 212 207 209 215 219 224 224 224 224 224 232 230 204 194 182 167 157 147 143 142 145 150 163 181 205 218 217 219 227 228 222 222 224 223 222 223 221 221 229 240 246 239 228 223
163 167 174 180 223 233 183 170 166 162 160 157 154 152 153 155 155 159 161 163 198 224 233 229 227 234 235 237 235 229 230 231 232 232 236 247 251 248 238 230 227 219 209 208 215 216 216 221 223 224 220 217 210 201 199 190 177 161 145 137 129 131 143 158 170 187 206 212 218 231 232 226 230 235 236 233 235 237 232 232 240 247 250 251 244
163 166 172 168 183 210 181 161 159 155 152 148 143 142 146 150 153 162 166 166 197 225 239 238 236 242 242 241 237 232 228 227 227 226 225 233 242 239 230 231 228 216 211 210 211 210 207 213 218 220 218 209 204 201 195 189 184 163 140 129 116 104 113 138 168 181 190 202 212 225 231 230 234 242 246 247 249 252 252 245 243 246 251 258 252
166 167 170 169 180 193 173 160 158 152 148 140 136 140 148 156 161 161 162 160 190 239 256 261 261 255 249 243 236 234 230 225 225 224 225 224 223 223 221 225 220 211 208 205 205 208 206 208 209 212 218 215 210 204 197 196 193 168 148 148 152 142 113 115 201 196 188 193 203 215 228 232 234 241 245 250 255 257 260 259 253 248 248 254 255
169 171 170 171 176 174 163 158 156 151 146 139 135 142 151 159 159 145 139 137 152 236 261 271 276 259 248 241 229 225 223 222 221 219 223 217 206 209 206 207 217 215 207 198 198 202 202 205 206 205 211 215 212 208 209 213 205 184 169 186 212 234 246 247 265 245 196 185 200 210 227 240 238 242 246 250 254 255 257 259 259 256 249 248 252
171 172 172 174 169 161 157 154 155 152 149 144 140 142 145 154 155 138 132 127 125 140 175 261 264 213 223 226 215 211 213 217 217 216 215 203 192 201 200 205 219 217 203 191 191 196 197 201 206 205 202 205 209 209 212 216 215 211 210 201 212 233 245 241 261 264 231 195 223 225 232 244 243 243 244 249 258 259 257 255 255 257 254 251 249
174 173 172 171 163 157 157 155 156 157 154 151 148 143 140 147 149 138 132 129 130 122 99 97 113 129 155 193 196 199 213 222 222 217 212 200 190 197 199 202 211 208 197 189 188 192 195 197 201 204 201 198 204 209 215 219 217 211 210 199 196 216 235 256 274 274 249 229 242 239 231 232 236 239 242 250 265 273 268 260 255 253 253 252 249
174 171 167 165 162 161 161 159 160 163 163 158 153 150 148 148 143 137 134 135 138 129 105 97 116 134 146 168 180 187 202 211 211 206 205 206 202 200 198 197 205 207 199 195 197 200 202 201 202 206 207 201 196 200 208 207 196 180 178 215 227 236 249 271 293 307 330 287 260 250 234 225 230 239 246 253 265 274 272 269 266 261 259 257 253
172 170 166 164 164 165 164 162 161 164 165 159 157 161 162 158 150 142 138 137 138 135 128 121 120 129 135 144 147 150 161 169 176 178 176 189 213 217 210 209 216 223 215 210 213 214 215 216 215 217 215 202 193 195 194 184 188 191 157 152 260 257 258 261 273 297 326 333 313 289 260 235 232 238 254 271 282 280 273 283 296 281 271 269 262
172 170 165 164 164 163 162 162 162 164 162 160 167 171 166 164 159 149 144 138 133 131 130 128 123 121 124 129 127 128 131 135 148 157 153 165 195 204 200 203 217 230 228 220 216 213 213 213 215 218 209 192 193 201 199 196 200 193 148 85 286 273 281 279 274 292 351 5 358 340 328 280 248 250 276 314 311 301 292 295 303 291 276 278 271
170 168 164 164 163 161 162 163 163 164 163 166 176 176 167 165 159 152 147 138 133 131 129 128 129 126 126 131 133 137 140 138 141 144 149 159 167 172 179 191 203 226 231 225 214 200 193 192 194 203 200 193 197 199 205 211 203 186 160 129 118 84 49 317 309 328 22 21 19 14 2 348 302 276 287 316 315 308 308 296 294 292 279 277 282
170 168 165 165 165 164 165 167 166 166 168 175 181 176 169 162 153 146 142 136 135 137 136 135 139 139 137 137 139 150 160 162 159 155 163 165 154 151 161 177 185 219 241 249 233 205 200 200 195 203 208 211 212 196 197 214 212 204 167 117 95 50 227 278 319 0 36 35 36 33 21 9 358 339 327 333 324 300 298 287 280 280 275 276 291
173 171 170 171 171 168 169 171 169 168 173 181 183 176 172 164 156 152 148 142 140 142 143 141 144 146 146 144 141 148 156 158 160 166 176 172 159 153 155 166 155 113 78 25 228 203 210 212 209 213 214 224 232 207 196 216 229 227 114 98 106 112 174 202 109 338 19 48 52 45 33 24 22 21 16 7 360 337 310 294 275 268 271 280 294
177 175 174 175 175 172 173 175 172 171 177 184 184 177 173 168 166 165 161 157 151 147 146 142 141 143 145 148 144 141 143 144 147 156 168 168 160 158 163 182 171 123 101 98 101 117 145 180 201 209 208 215 226 209 195 197 211 224 84 86 94 94 103 124 122 109 345 33 36 44 40 32 33 24 17 13 8 6 354 331 306 288 283 287 298
184 179 178 180 181 179 178 179 174 173 178 183 185 181 176 173 171 170 166 163 157 150 151 147 143 143 145 149 148 143 141 140 141 145 152 155 152 153 157 169 164 134 112 107 102 106 118 138 172 189 196 206 214 207 199 188 175 157 117 107 95 88 77 76 99 106 125 287 351 22 19 12 20 25 18 12 4 357 352 345 337 331 321 309 312
191 185 183 183 184 183 182 182 179 178 182 186 186 184 182 178 175 171 162 158 154 149 151 151 149 148 145 143 141 139 139 141 143 140 139 139 135 136 136 130 127 117 108 106 104 104 104 104 121 149 167 176 175 185 196 182 156 146 138 125 111 102 87 79 85 91 101 103 330 328 352 360 13 30 36 43 47 43 38 37 39 39 37 27 4
197 193 189 187 188 186 184 183 181 180 183 188 187 184 184 182 179 173 162 154 152 151 152 152 153 154 150 144 138 133 134 135 136 134 131 129 125 124 125 122 119 116 113 111 111 110 105 101 105 114 117 117 116 125 140 138 135 137 135 130 117 107 96 81 75 73 77 81 66 311 348 357 0 27 47 59 62 65 66 63 61 58 57 57 52
199 198 196 194 191 188 186 184 184 185 186 188 187 184 185 185 183 176 165 159 157 156 157 156 157 160 158 154 147 139 137 134 133 132 129 127 126 127 130 130 127 125 122 119 117 116 115 115 116 114 108 104 105 113 120 121 122 118 113 115 108 95 87 79 70 59 54 55 50 351 350 352 333 11 48 59 58 61 63 58 52 48 49 52 53